Year,Month,Day,Hour,Minute,Value (Times are PST for insolation in W/m^2)
2018,01,30,00,00,0.00
2018,01,30,00,01,0.00
2018,01,30,00,02,0.00
2018,01,30,00,03,0.00
2018,01,30,00,04,0.00
2018,01,30,00,05,0.00
2018,01,30,00,06,0.00
2018,01,30,00,07,0.00
2018,01,30,00,08,0.00
2018,01,30,00,09,0.00
2018,01,30,00,10,0.00
2018,01,30,00,11,0.00
2018,01,30,00,12,0.00
2018,01,30,00,13,0.00
2018,01,30,00,14,0.00
2018,01,30,00,15,0.00
2018,01,30,00,16,0.00
2018,01,30,00,17,0.00
2018,01,30,00,18,0.00
2018,01,30,00,19,0.00
2018,01,30,00,20,0.00
2018,01,30,00,21,0.00
2018,01,30,00,22,0.00
2018,01,30,00,23,0.00
2018,01,30,00,24,0.00
2018,01,30,00,25,0.00
2018,01,30,00,26,0.00
2018,01,30,00,27,0.00
2018,01,30,00,28,0.00
2018,01,30,00,29,0.00
2018,01,30,00,30,0.00
2018,01,30,00,31,0.00
2018,01,30,00,32,0.00
2018,01,30,00,33,0.00
2018,01,30,00,34,0.00
2018,01,30,00,35,0.00
2018,01,30,00,36,0.00
2018,01,30,00,37,0.00
2018,01,30,00,38,0.00
2018,01,30,00,39,0.00
2018,01,30,00,40,0.00
2018,01,30,00,41,0.00
2018,01,30,00,42,0.00
2018,01,30,00,43,0.00
2018,01,30,00,44,0.00
2018,01,30,00,45,0.00
2018,01,30,00,46,0.00
2018,01,30,00,47,0.00
2018,01,30,00,48,0.00
2018,01,30,00,49,0.00
2018,01,30,00,50,0.00
2018,01,30,00,51,0.00
2018,01,30,00,52,0.00
2018,01,30,00,53,0.00
2018,01,30,00,54,0.00
2018,01,30,00,55,0.00
2018,01,30,00,56,0.00
2018,01,30,00,57,0.00
2018,01,30,00,58,0.00
2018,01,30,00,59,0.00
2018,01,30,01,00,0.00
2018,01,30,01,01,0.00
2018,01,30,01,02,0.00
2018,01,30,01,03,0.00
2018,01,30,01,04,0.00
2018,01,30,01,05,0.00
2018,01,30,01,06,0.00
2018,01,30,01,07,0.00
2018,01,30,01,08,0.00
2018,01,30,01,09,0.00
2018,01,30,01,10,0.00
2018,01,30,01,11,0.00
2018,01,30,01,12,0.00
2018,01,30,01,13,0.00
2018,01,30,01,14,0.00
2018,01,30,01,15,0.00
2018,01,30,01,16,0.00
2018,01,30,01,17,0.00
2018,01,30,01,18,0.00
2018,01,30,01,19,0.00
2018,01,30,01,20,0.00
2018,01,30,01,21,0.00
2018,01,30,01,22,0.00
2018,01,30,01,23,0.00
2018,01,30,01,24,0.00
2018,01,30,01,25,0.00
2018,01,30,01,26,0.00
2018,01,30,01,27,0.00
2018,01,30,01,28,0.00
2018,01,30,01,29,0.00
2018,01,30,01,30,0.00
2018,01,30,01,31,0.00
2018,01,30,01,32,0.00
2018,01,30,01,33,0.00
2018,01,30,01,34,0.00
2018,01,30,01,35,0.00
2018,01,30,01,36,0.00
2018,01,30,01,37,0.00
2018,01,30,01,38,0.00
2018,01,30,01,39,0.00
2018,01,30,01,40,0.00
2018,01,30,01,41,0.00
2018,01,30,01,42,0.00
2018,01,30,01,43,0.00
2018,01,30,01,44,0.00
2018,01,30,01,45,0.00
2018,01,30,01,46,0.00
2018,01,30,01,47,0.00
2018,01,30,01,48,0.00
2018,01,30,01,49,0.00
2018,01,30,01,50,0.00
2018,01,30,01,51,0.00
2018,01,30,01,52,0.00
2018,01,30,01,53,0.00
2018,01,30,01,54,0.00
2018,01,30,01,55,0.00
2018,01,30,01,56,0.00
2018,01,30,01,57,0.00
2018,01,30,01,58,0.00
2018,01,30,01,59,0.00
2018,01,30,02,00,0.00
2018,01,30,02,01,0.00
2018,01,30,02,02,0.00
2018,01,30,02,03,0.00
2018,01,30,02,04,0.00
2018,01,30,02,05,0.00
2018,01,30,02,06,0.00
2018,01,30,02,07,0.00
2018,01,30,02,08,0.00
2018,01,30,02,09,0.00
2018,01,30,02,10,0.00
2018,01,30,02,11,0.00
2018,01,30,02,12,0.00
2018,01,30,02,13,0.00
2018,01,30,02,14,0.00
2018,01,30,02,15,0.00
2018,01,30,02,16,0.00
2018,01,30,02,17,0.00
2018,01,30,02,18,0.00
2018,01,30,02,19,0.00
2018,01,30,02,20,0.00
2018,01,30,02,21,0.00
2018,01,30,02,22,0.00
2018,01,30,02,23,0.00
2018,01,30,02,24,0.00
2018,01,30,02,25,0.00
2018,01,30,02,26,0.00
2018,01,30,02,27,0.00
2018,01,30,02,28,0.00
2018,01,30,02,29,0.00
2018,01,30,02,30,0.00
2018,01,30,02,31,0.00
2018,01,30,02,32,0.00
2018,01,30,02,33,0.00
2018,01,30,02,34,0.00
2018,01,30,02,35,0.00
2018,01,30,02,36,0.00
2018,01,30,02,37,0.00
2018,01,30,02,38,0.00
2018,01,30,02,39,0.00
2018,01,30,02,40,0.00
2018,01,30,02,41,0.00
2018,01,30,02,42,0.00
2018,01,30,02,43,0.00
2018,01,30,02,44,0.00
2018,01,30,02,45,0.00
2018,01,30,02,46,0.00
2018,01,30,02,47,0.00
2018,01,30,02,48,0.00
2018,01,30,02,49,0.00
2018,01,30,02,50,0.00
2018,01,30,02,51,0.00
2018,01,30,02,52,0.00
2018,01,30,02,53,0.00
2018,01,30,02,54,0.00
2018,01,30,02,55,0.00
2018,01,30,02,56,0.00
2018,01,30,02,57,0.00
2018,01,30,02,58,0.00
2018,01,30,02,59,0.00
2018,01,30,03,00,0.00
2018,01,30,03,01,0.00
2018,01,30,03,02,0.00
2018,01,30,03,03,0.00
2018,01,30,03,04,0.00
2018,01,30,03,05,0.00
2018,01,30,03,06,0.00
2018,01,30,03,07,0.00
2018,01,30,03,08,0.00
2018,01,30,03,09,0.00
2018,01,30,03,10,0.00
2018,01,30,03,11,0.00
2018,01,30,03,12,0.00
2018,01,30,03,13,0.00
2018,01,30,03,14,0.00
2018,01,30,03,15,0.00
2018,01,30,03,16,0.00
2018,01,30,03,17,0.00
2018,01,30,03,18,0.00
2018,01,30,03,19,0.00
2018,01,30,03,20,0.00
2018,01,30,03,21,0.00
2018,01,30,03,22,0.00
2018,01,30,03,23,0.00
2018,01,30,03,24,0.00
2018,01,30,03,25,0.00
2018,01,30,03,26,0.00
2018,01,30,03,27,0.00
2018,01,30,03,28,0.00
2018,01,30,03,29,0.00
2018,01,30,03,30,0.00
2018,01,30,03,31,0.00
2018,01,30,03,32,0.00
2018,01,30,03,33,0.00
2018,01,30,03,34,0.00
2018,01,30,03,35,0.00
2018,01,30,03,36,0.00
2018,01,30,03,37,0.00
2018,01,30,03,38,0.00
2018,01,30,03,39,0.00
2018,01,30,03,40,0.00
2018,01,30,03,41,0.00
2018,01,30,03,42,0.00
2018,01,30,03,43,0.00
2018,01,30,03,44,0.00
2018,01,30,03,45,0.00
2018,01,30,03,46,0.00
2018,01,30,03,47,0.00
2018,01,30,03,48,0.00
2018,01,30,03,49,0.00
2018,01,30,03,50,0.00
2018,01,30,03,51,0.00
2018,01,30,03,52,0.00
2018,01,30,03,53,0.00
2018,01,30,03,54,0.00
2018,01,30,03,55,0.00
2018,01,30,03,56,0.00
2018,01,30,03,57,0.00
2018,01,30,03,58,0.00
2018,01,30,03,59,0.00
2018,01,30,04,00,0.00
2018,01,30,04,01,0.00
2018,01,30,04,02,0.00
2018,01,30,04,03,0.00
2018,01,30,04,04,0.00
2018,01,30,04,05,0.00
2018,01,30,04,06,0.00
2018,01,30,04,07,0.00
2018,01,30,04,08,0.00
2018,01,30,04,09,0.00
2018,01,30,04,10,0.00
2018,01,30,04,11,0.00
2018,01,30,04,12,0.00
2018,01,30,04,13,0.00
2018,01,30,04,14,0.00
2018,01,30,04,15,0.00
2018,01,30,04,16,0.00
2018,01,30,04,17,0.00
2018,01,30,04,18,0.00
2018,01,30,04,19,0.00
2018,01,30,04,20,0.00
2018,01,30,04,21,0.00
2018,01,30,04,22,0.00
2018,01,30,04,23,0.00
2018,01,30,04,24,0.00
2018,01,30,04,25,0.00
2018,01,30,04,26,0.00
2018,01,30,04,27,0.00
2018,01,30,04,28,0.00
2018,01,30,04,29,0.00
2018,01,30,04,30,0.00
2018,01,30,04,31,0.00
2018,01,30,04,32,0.00
2018,01,30,04,33,0.00
2018,01,30,04,34,0.00
2018,01,30,04,35,0.00
2018,01,30,04,36,0.00
2018,01,30,04,37,0.00
2018,01,30,04,38,0.00
2018,01,30,04,39,0.00
2018,01,30,04,40,0.00
2018,01,30,04,41,0.00
2018,01,30,04,42,0.00
2018,01,30,04,43,0.00
2018,01,30,04,44,0.00
2018,01,30,04,45,0.00
2018,01,30,04,46,0.00
2018,01,30,04,47,0.00
2018,01,30,04,48,0.00
2018,01,30,04,49,0.00
2018,01,30,04,50,0.00
2018,01,30,04,51,0.00
2018,01,30,04,52,0.00
2018,01,30,04,53,0.00
2018,01,30,04,54,0.00
2018,01,30,04,55,0.00
2018,01,30,04,56,0.00
2018,01,30,04,57,0.00
2018,01,30,04,58,0.00
2018,01,30,04,59,0.00
2018,01,30,05,00,0.00
2018,01,30,05,01,0.00
2018,01,30,05,02,0.00
2018,01,30,05,03,0.00
2018,01,30,05,04,0.00
2018,01,30,05,05,0.00
2018,01,30,05,06,0.00
2018,01,30,05,07,0.00
2018,01,30,05,08,0.00
2018,01,30,05,09,0.00
2018,01,30,05,10,0.00
2018,01,30,05,11,0.00
2018,01,30,05,12,0.00
2018,01,30,05,13,0.00
2018,01,30,05,14,0.00
2018,01,30,05,15,0.00
2018,01,30,05,16,0.00
2018,01,30,05,17,0.00
2018,01,30,05,18,0.00
2018,01,30,05,19,0.00
2018,01,30,05,20,0.00
2018,01,30,05,21,0.00
2018,01,30,05,22,0.00
2018,01,30,05,23,0.00
2018,01,30,05,24,0.00
2018,01,30,05,25,0.00
2018,01,30,05,26,0.00
2018,01,30,05,27,0.00
2018,01,30,05,28,0.00
2018,01,30,05,29,0.00
2018,01,30,05,30,0.00
2018,01,30,05,31,0.00
2018,01,30,05,32,0.00
2018,01,30,05,33,0.00
2018,01,30,05,34,0.00
2018,01,30,05,35,0.00
2018,01,30,05,36,0.00
2018,01,30,05,37,0.00
2018,01,30,05,38,0.00
2018,01,30,05,39,0.00
2018,01,30,05,40,0.00
2018,01,30,05,41,0.00
2018,01,30,05,42,0.00
2018,01,30,05,43,0.00
2018,01,30,05,44,0.00
2018,01,30,05,45,0.00
2018,01,30,05,46,0.00
2018,01,30,05,47,0.00
2018,01,30,05,48,0.00
2018,01,30,05,49,0.00
2018,01,30,05,50,0.00
2018,01,30,05,51,0.00
2018,01,30,05,52,0.00
2018,01,30,05,53,0.00
2018,01,30,05,54,0.00
2018,01,30,05,55,0.00
2018,01,30,05,56,0.00
2018,01,30,05,57,0.00
2018,01,30,05,58,0.00
2018,01,30,05,59,0.00
2018,01,30,06,00,0.00
2018,01,30,06,01,0.00
2018,01,30,06,02,0.00
2018,01,30,06,03,0.00
2018,01,30,06,04,0.00
2018,01,30,06,05,0.00
2018,01,30,06,06,0.00
2018,01,30,06,07,0.00
2018,01,30,06,08,0.00
2018,01,30,06,09,0.00
2018,01,30,06,10,0.00
2018,01,30,06,11,0.00
2018,01,30,06,12,0.00
2018,01,30,06,13,0.00
2018,01,30,06,14,0.00
2018,01,30,06,15,0.00
2018,01,30,06,16,0.00
2018,01,30,06,17,0.00
2018,01,30,06,18,0.00
2018,01,30,06,19,0.00
2018,01,30,06,20,0.00
2018,01,30,06,21,0.00
2018,01,30,06,22,0.00
2018,01,30,06,23,0.00
2018,01,30,06,24,0.00
2018,01,30,06,25,0.00
2018,01,30,06,26,0.00
2018,01,30,06,27,0.00
2018,01,30,06,28,0.00
2018,01,30,06,29,0.00
2018,01,30,06,30,0.00
2018,01,30,06,31,0.00
2018,01,30,06,32,0.00
2018,01,30,06,33,0.00
2018,01,30,06,34,0.00
2018,01,30,06,35,0.00
2018,01,30,06,36,0.00
2018,01,30,06,37,0.00
2018,01,30,06,38,0.00
2018,01,30,06,39,0.00
2018,01,30,06,40,0.00
2018,01,30,06,41,0.00
2018,01,30,06,42,0.00
2018,01,30,06,43,0.00
2018,01,30,06,44,0.00
2018,01,30,06,45,0.00
2018,01,30,06,46,0.00
2018,01,30,06,47,0.00
2018,01,30,06,48,0.00
2018,01,30,06,49,0.00
2018,01,30,06,50,0.00
2018,01,30,06,51,0.00
2018,01,30,06,52,0.00
2018,01,30,06,53,0.00
2018,01,30,06,54,0.00
2018,01,30,06,55,0.00
2018,01,30,06,56,0.00
2018,01,30,06,57,0.00
2018,01,30,06,58,0.00
2018,01,30,06,59,0.00
2018,01,30,07,00,0.00
2018,01,30,07,01,0.00
2018,01,30,07,02,0.00
2018,01,30,07,03,0.00
2018,01,30,07,04,0.00
2018,01,30,07,05,0.00
2018,01,30,07,06,0.00
2018,01,30,07,07,0.00
2018,01,30,07,08,0.00
2018,01,30,07,09,0.00
2018,01,30,07,10,0.00
2018,01,30,07,11,0.00
2018,01,30,07,12,0.00
2018,01,30,07,13,0.00
2018,01,30,07,14,0.00
2018,01,30,07,15,0.00
2018,01,30,07,16,0.00
2018,01,30,07,17,0.00
2018,01,30,07,18,0.00
2018,01,30,07,19,0.00
2018,01,30,07,20,0.00
2018,01,30,07,21,0.00
2018,01,30,07,22,0.00
2018,01,30,07,23,0.00
2018,01,30,07,24,0.00
2018,01,30,07,25,0.00
2018,01,30,07,26,0.00
2018,01,30,07,27,0.00
2018,01,30,07,28,0.00
2018,01,30,07,29,0.00
2018,01,30,07,30,0.00
2018,01,30,07,31,0.00
2018,01,30,07,32,0.00
2018,01,30,07,33,0.00
2018,01,30,07,34,0.00
2018,01,30,07,35,0.00
2018,01,30,07,36,0.00
2018,01,30,07,37,0.00
2018,01,30,07,38,0.00
2018,01,30,07,39,0.00
2018,01,30,07,40,0.00
2018,01,30,07,41,0.00
2018,01,30,07,42,0.00
2018,01,30,07,43,0.00
2018,01,30,07,44,0.00
2018,01,30,07,45,0.00
2018,01,30,07,46,0.00
2018,01,30,07,47,0.00
2018,01,30,07,48,0.00
2018,01,30,07,49,0.00
2018,01,30,07,50,0.00
2018,01,30,07,51,0.00
2018,01,30,07,52,0.00
2018,01,30,07,53,0.00
2018,01,30,07,54,0.00
2018,01,30,07,55,4.30
2018,01,30,07,56,5.00
2018,01,30,07,57,5.00
2018,01,30,07,58,5.00
2018,01,30,07,59,5.00
2018,01,30,08,00,5.40
2018,01,30,08,01,7.00
2018,01,30,08,02,7.00
2018,01,30,08,03,7.00
2018,01,30,08,04,7.00
2018,01,30,08,05,8.10
2018,01,30,08,06,9.00
2018,01,30,08,07,9.00
2018,01,30,08,08,9.00
2018,01,30,08,09,9.00
2018,01,30,08,10,9.00
2018,01,30,08,11,9.00
2018,01,30,08,12,10.90
2018,01,30,08,13,11.00
2018,01,30,08,14,11.00
2018,01,30,08,15,11.20
2018,01,30,08,16,12.00
2018,01,30,08,17,12.00
2018,01,30,08,18,12.00
2018,01,30,08,19,12.00
2018,01,30,08,20,13.00
2018,01,30,08,21,14.00
2018,01,30,08,22,14.00
2018,01,30,08,23,14.00
2018,01,30,08,24,15.60
2018,01,30,08,25,16.00
2018,01,30,08,26,17.80
2018,01,30,08,27,18.90
2018,01,30,08,28,17.80
2018,01,30,08,29,16.30
2018,01,30,08,30,18.00
2018,01,30,08,31,18.00
2018,01,30,08,32,18.30
2018,01,30,08,33,19.00
2018,01,30,08,34,19.00
2018,01,30,08,35,19.00
2018,01,30,08,36,19.00
2018,01,30,08,37,20.30
2018,01,30,08,38,21.00
2018,01,30,08,39,21.00
2018,01,30,08,40,21.00
2018,01,30,08,41,21.00
2018,01,30,08,42,21.00
2018,01,30,08,43,21.20
2018,01,30,08,44,23.00
2018,01,30,08,45,23.00
2018,01,30,08,46,23.00
2018,01,30,08,47,23.70
2018,01,30,08,48,25.00
2018,01,30,08,49,25.00
2018,01,30,08,50,25.00
2018,01,30,08,51,25.00
2018,01,30,08,52,25.00
2018,01,30,08,53,25.70
2018,01,30,08,54,26.00
2018,01,30,08,55,26.00
2018,01,30,08,56,26.00
2018,01,30,08,57,26.00
2018,01,30,08,58,26.00
2018,01,30,08,59,26.00
2018,01,30,09,00,26.00
2018,01,30,09,01,26.00
2018,01,30,09,02,26.00
2018,01,30,09,03,26.80
2018,01,30,09,04,28.00
2018,01,30,09,05,28.00
2018,01,30,09,06,28.00
2018,01,30,09,07,29.30
2018,01,30,09,08,30.00
2018,01,30,09,09,31.50
2018,01,30,09,10,32.90
2018,01,30,09,11,32.10
2018,01,30,09,12,30.10
2018,01,30,09,13,30.20
2018,01,30,09,14,32.50
2018,01,30,09,15,35.50
2018,01,30,09,16,36.40
2018,01,30,09,17,34.00
2018,01,30,09,18,32.00
2018,01,30,09,19,32.00
2018,01,30,09,20,32.00
2018,01,30,09,21,32.00
2018,01,30,09,22,32.00
2018,01,30,09,23,32.00
2018,01,30,09,24,32.00
2018,01,30,09,25,32.90
2018,01,30,09,26,36.60
2018,01,30,09,27,37.10
2018,01,30,09,28,40.10
2018,01,30,09,29,51.30
2018,01,30,09,30,54.30
2018,01,30,09,31,61.40
2018,01,30,09,32,65.70
2018,01,30,09,33,62.50
2018,01,30,09,34,60.00
2018,01,30,09,35,71.30
2018,01,30,09,36,90.60
2018,01,30,09,37,102.60
2018,01,30,09,38,99.10
2018,01,30,09,39,100.80
2018,01,30,09,40,109.70
2018,01,30,09,41,117.00
2018,01,30,09,42,107.20
2018,01,30,09,43,99.10
2018,01,30,09,44,77.70
2018,01,30,09,45,58.00
2018,01,30,09,46,56.60
2018,01,30,09,47,54.70
2018,01,30,09,48,53.50
2018,01,30,09,49,43.70
2018,01,30,09,50,40.00
2018,01,30,09,51,40.00
2018,01,30,09,52,40.00
2018,01,30,09,53,42.90
2018,01,30,09,54,47.80
2018,01,30,09,55,55.00
2018,01,30,09,56,49.70
2018,01,30,09,57,42.20
2018,01,30,09,58,40.00
2018,01,30,09,59,40.30
2018,01,30,10,00,41.60
2018,01,30,10,01,40.00
2018,01,30,10,02,40.70
2018,01,30,10,03,42.00
2018,01,30,10,04,42.00
2018,01,30,10,05,43.00
2018,01,30,10,06,45.20
2018,01,30,10,07,49.20
2018,01,30,10,08,48.10
2018,01,30,10,09,48.50
2018,01,30,10,10,46.40
2018,01,30,10,11,46.00
2018,01,30,10,12,47.00
2018,01,30,10,13,47.00
2018,01,30,10,14,47.00
2018,01,30,10,15,47.00
2018,01,30,10,16,47.60
2018,01,30,10,17,49.00
2018,01,30,10,18,49.80
2018,01,30,10,19,53.30
2018,01,30,10,20,65.40
2018,01,30,10,21,97.00
2018,01,30,10,22,157.00
2018,01,30,10,23,193.00
2018,01,30,10,24,245.40
2018,01,30,10,25,255.30
2018,01,30,10,26,226.00
2018,01,30,10,27,210.00
2018,01,30,10,28,214.00
2018,01,30,10,29,165.90
2018,01,30,10,30,108.60
2018,01,30,10,31,123.00
2018,01,30,10,32,127.70
2018,01,30,10,33,142.20
2018,01,30,10,34,201.50
2018,01,30,10,35,205.30
2018,01,30,10,36,123.10
2018,01,30,10,37,86.00
2018,01,30,10,38,90.40
2018,01,30,10,39,89.00
2018,01,30,10,40,96.60
2018,01,30,10,41,120.60
2018,01,30,10,42,159.80
2018,01,30,10,43,197.40
2018,01,30,10,44,253.30
2018,01,30,10,45,343.80
2018,01,30,10,46,348.60
2018,01,30,10,47,311.30
2018,01,30,10,48,304.60
2018,01,30,10,49,320.00
2018,01,30,10,50,221.50
2018,01,30,10,51,101.90
2018,01,30,10,52,65.70
2018,01,30,10,53,49.60
2018,01,30,10,54,40.60
2018,01,30,10,55,37.30
2018,01,30,10,56,35.20
2018,01,30,10,57,33.10
2018,01,30,10,58,33.00
2018,01,30,10,59,32.60
2018,01,30,11,00,30.70
2018,01,30,11,01,35.60
2018,01,30,11,02,47.30
2018,01,30,11,03,61.70
2018,01,30,11,04,70.30
2018,01,30,11,05,78.70
2018,01,30,11,06,88.70
2018,01,30,11,07,103.70
2018,01,30,11,08,118.80
2018,01,30,11,09,113.70
2018,01,30,11,10,105.00
2018,01,30,11,11,95.90
2018,01,30,11,12,104.40
2018,01,30,11,13,120.90
2018,01,30,11,14,118.90
2018,01,30,11,15,111.00
2018,01,30,11,16,98.60
2018,01,30,11,17,80.30
2018,01,30,11,18,66.50
2018,01,30,11,19,61.60
2018,01,30,11,20,56.30
2018,01,30,11,21,51.80
2018,01,30,11,22,53.00
2018,01,30,11,23,59.70
2018,01,30,11,24,73.60
2018,01,30,11,25,104.20
2018,01,30,11,26,129.80
2018,01,30,11,27,146.70
2018,01,30,11,28,135.90
2018,01,30,11,29,143.30
2018,01,30,11,30,139.50
2018,01,30,11,31,140.40
2018,01,30,11,32,137.80
2018,01,30,11,33,129.70
2018,01,30,11,34,117.70
2018,01,30,11,35,109.30
2018,01,30,11,36,100.90
2018,01,30,11,37,93.30
2018,01,30,11,38,93.80
2018,01,30,11,39,93.50
2018,01,30,11,40,97.30
2018,01,30,11,41,98.00
2018,01,30,11,42,98.00
2018,01,30,11,43,98.70
2018,01,30,11,44,105.60
2018,01,30,11,45,108.00
2018,01,30,11,46,106.70
2018,01,30,11,47,114.00
2018,01,30,11,48,123.30
2018,01,30,11,49,132.50
2018,01,30,11,50,155.30
2018,01,30,11,51,206.30
2018,01,30,11,52,196.70
2018,01,30,11,53,207.40
2018,01,30,11,54,180.80
2018,01,30,11,55,189.10
2018,01,30,11,56,192.00
2018,01,30,11,57,283.00
2018,01,30,11,58,231.60
2018,01,30,11,59,215.60
2018,01,30,12,00,257.30
2018,01,30,12,01,267.00
2018,01,30,12,02,308.70
2018,01,30,12,03,397.70
2018,01,30,12,04,403.60
2018,01,30,12,05,351.20
2018,01,30,12,06,352.40
2018,01,30,12,07,392.70
2018,01,30,12,08,399.00
2018,01,30,12,09,399.00
2018,01,30,12,10,399.00
2018,01,30,12,11,136.20
2018,01,30,12,12,107.00
2018,01,30,12,13,126.10
2018,01,30,12,14,310.00
2018,01,30,12,15,322.00
2018,01,30,12,16,322.00
2018,01,30,12,17,358.30
2018,01,30,12,18,424.50
2018,01,30,12,19,415.00
2018,01,30,12,20,410.30
2018,01,30,12,21,404.20
2018,01,30,12,22,387.60
2018,01,30,12,23,332.00
2018,01,30,12,24,311.00
2018,01,30,12,25,147.30
2018,01,30,12,26,118.20
2018,01,30,12,27,123.10
2018,01,30,12,28,130.40
2018,01,30,12,29,140.70
2018,01,30,12,30,153.30
2018,01,30,12,31,166.70
2018,01,30,12,32,179.00
2018,01,30,12,33,188.30
2018,01,30,12,34,197.30
2018,01,30,12,35,211.90
2018,01,30,12,36,247.80
2018,01,30,12,37,305.70
2018,01,30,12,38,261.40
2018,01,30,12,39,253.00
2018,01,30,12,40,258.00
2018,01,30,12,41,258.00
2018,01,30,12,42,484.20
2018,01,30,12,43,514.10
2018,01,30,12,44,505.60
2018,01,30,12,45,501.00
2018,01,30,12,46,492.60
2018,01,30,12,47,489.40
2018,01,30,12,48,490.00
2018,01,30,12,49,475.90
2018,01,30,12,50,478.20
2018,01,30,12,51,476.30
2018,01,30,12,52,476.70
2018,01,30,12,53,482.30
2018,01,30,12,54,475.00
2018,01,30,12,55,465.30
2018,01,30,12,56,455.90
2018,01,30,12,57,448.30
2018,01,30,12,58,452.00
2018,01,30,12,59,453.40
2018,01,30,13,00,463.60
2018,01,30,13,01,472.10
2018,01,30,13,02,483.30
2018,01,30,13,03,490.00
2018,01,30,13,04,490.00
2018,01,30,13,05,506.00
2018,01,30,13,06,514.90
2018,01,30,13,07,512.00
2018,01,30,13,08,277.00
2018,01,30,13,09,183.00
2018,01,30,13,10,183.00
2018,01,30,13,11,306.30
2018,01,30,13,12,320.00
2018,01,30,13,13,320.00
2018,01,30,13,14,350.10
2018,01,30,13,15,540.50
2018,01,30,13,16,571.00
2018,01,30,13,17,414.90
2018,01,30,13,18,109.00
2018,01,30,13,19,76.60
2018,01,30,13,20,72.70
2018,01,30,13,21,84.60
2018,01,30,13,22,131.70
2018,01,30,13,23,181.40
2018,01,30,13,24,179.60
2018,01,30,13,25,177.70
2018,01,30,13,26,197.80
2018,01,30,13,27,270.60
2018,01,30,13,28,274.00
2018,01,30,13,29,271.60
2018,01,30,13,30,250.60
2018,01,30,13,31,226.00
2018,01,30,13,32,212.00
2018,01,30,13,33,197.10
2018,01,30,13,34,179.90
2018,01,30,13,35,163.10
2018,01,30,13,36,155.40
2018,01,30,13,37,155.70
2018,01,30,13,38,165.30
2018,01,30,13,39,174.30
2018,01,30,13,40,183.40
2018,01,30,13,41,191.30
2018,01,30,13,42,199.60
2018,01,30,13,43,190.80
2018,01,30,13,44,179.30
2018,01,30,13,45,183.50
2018,01,30,13,46,192.00
2018,01,30,13,47,296.70
2018,01,30,13,48,506.00
2018,01,30,13,49,392.80
2018,01,30,13,50,241.60
2018,01,30,13,51,217.20
2018,01,30,13,52,203.00
2018,01,30,13,53,196.40
2018,01,30,13,54,191.20
2018,01,30,13,55,186.80
2018,01,30,13,56,181.50
2018,01,30,13,57,176.10
2018,01,30,13,58,174.40
2018,01,30,13,59,178.40
2018,01,30,14,00,182.10
2018,01,30,14,01,186.60
2018,01,30,14,02,189.40
2018,01,30,14,03,192.40
2018,01,30,14,04,196.30
2018,01,30,14,05,203.10
2018,01,30,14,06,215.30
2018,01,30,14,07,221.00
2018,01,30,14,08,391.00
2018,01,30,14,09,445.30
2018,01,30,14,10,360.80
2018,01,30,14,11,388.90
2018,01,30,14,12,385.60
2018,01,30,14,13,208.50
2018,01,30,14,14,204.00
2018,01,30,14,15,231.50
2018,01,30,14,16,325.00
2018,01,30,14,17,263.00
2018,01,30,14,18,139.20
2018,01,30,14,19,120.30
2018,01,30,14,20,120.80
2018,01,30,14,21,116.40
2018,01,30,14,22,98.30
2018,01,30,14,23,84.00
2018,01,30,14,24,75.60
2018,01,30,14,25,69.70
2018,01,30,14,26,60.90
2018,01,30,14,27,63.80
2018,01,30,14,28,84.00
2018,01,30,14,29,92.60
2018,01,30,14,30,89.50
2018,01,30,14,31,88.00
2018,01,30,14,32,79.30
2018,01,30,14,33,54.30
2018,01,30,14,34,40.70
2018,01,30,14,35,34.40
2018,01,30,14,36,29.70
2018,01,30,14,37,26.70
2018,01,30,14,38,26.00
2018,01,30,14,39,31.40
2018,01,30,14,40,46.70
2018,01,30,14,41,73.40
2018,01,30,14,42,107.40
2018,01,30,14,43,156.10
2018,01,30,14,44,172.70
2018,01,30,14,45,192.70
2018,01,30,14,46,132.00
2018,01,30,14,47,102.00
2018,01,30,14,48,181.30
2018,01,30,14,49,288.40
2018,01,30,14,50,284.20
2018,01,30,14,51,278.50
2018,01,30,14,52,278.00
2018,01,30,14,53,135.90
2018,01,30,14,54,73.60
2018,01,30,14,55,67.70
2018,01,30,14,56,62.50
2018,01,30,14,57,58.00
2018,01,30,14,58,54.20
2018,01,30,14,59,57.00
2018,01,30,15,00,63.90
2018,01,30,15,01,66.40
2018,01,30,15,02,65.00
2018,01,30,15,03,62.10
2018,01,30,15,04,55.50
2018,01,30,15,05,49.30
2018,01,30,15,06,43.70
2018,01,30,15,07,40.70
2018,01,30,15,08,43.00
2018,01,30,15,09,44.00
2018,01,30,15,10,40.60
2018,01,30,15,11,39.10
2018,01,30,15,12,39.20
2018,01,30,15,13,44.50
2018,01,30,15,14,50.60
2018,01,30,15,15,62.70
2018,01,30,15,16,75.40
2018,01,30,15,17,86.00
2018,01,30,15,18,86.60
2018,01,30,15,19,70.50
2018,01,30,15,20,50.70
2018,01,30,15,21,41.70
2018,01,30,15,22,40.00
2018,01,30,15,23,41.40
2018,01,30,15,24,45.00
2018,01,30,15,25,51.70
2018,01,30,15,26,53.00
2018,01,30,15,27,46.30
2018,01,30,15,28,41.40
2018,01,30,15,29,34.30
2018,01,30,15,30,29.60
2018,01,30,15,31,29.10
2018,01,30,15,32,33.00
2018,01,30,15,33,37.10
2018,01,30,15,34,45.20
2018,01,30,15,35,73.00
2018,01,30,15,36,144.40
2018,01,30,15,37,192.90
2018,01,30,15,38,173.10
2018,01,30,15,39,104.80
2018,01,30,15,40,59.10
2018,01,30,15,41,45.00
2018,01,30,15,42,39.10
2018,01,30,15,43,36.80
2018,01,30,15,44,35.00
2018,01,30,15,45,34.00
2018,01,30,15,46,29.40
2018,01,30,15,47,27.00
2018,01,30,15,48,24.20
2018,01,30,15,49,23.00
2018,01,30,15,50,22.00
2018,01,30,15,51,22.10
2018,01,30,15,52,24.30
2018,01,30,15,53,30.60
2018,01,30,15,54,48.50
2018,01,30,15,55,60.70
2018,01,30,15,56,54.80
2018,01,30,15,57,51.00
2018,01,30,15,58,46.70
2018,01,30,15,59,43.00
2018,01,30,16,00,35.20
2018,01,30,16,01,29.40
2018,01,30,16,02,27.30
2018,01,30,16,03,25.60
2018,01,30,16,04,24.00
2018,01,30,16,05,22.00
2018,01,30,16,06,21.00
2018,01,30,16,07,22.30
2018,01,30,16,08,25.10
2018,01,30,16,09,33.00
2018,01,30,16,10,47.00
2018,01,30,16,11,60.80
2018,01,30,16,12,61.60
2018,01,30,16,13,51.90
2018,01,30,16,14,41.60
2018,01,30,16,15,39.00
2018,01,30,16,16,37.40
2018,01,30,16,17,32.00
2018,01,30,16,18,30.00
2018,01,30,16,19,30.00
2018,01,30,16,20,27.90
2018,01,30,16,21,24.20
2018,01,30,16,22,21.70
2018,01,30,16,23,21.00
2018,01,30,16,24,22.60
2018,01,30,16,25,21.40
2018,01,30,16,26,21.00
2018,01,30,16,27,23.00
2018,01,30,16,28,25.00
2018,01,30,16,29,24.70
2018,01,30,16,30,21.90
2018,01,30,16,31,16.90
2018,01,30,16,32,13.30
2018,01,30,16,33,12.00
2018,01,30,16,34,12.00
2018,01,30,16,35,12.00
2018,01,30,16,36,12.00
2018,01,30,16,37,12.00
2018,01,30,16,38,12.00
2018,01,30,16,39,12.00
2018,01,30,16,40,11.20
2018,01,30,16,41,11.00
2018,01,30,16,42,11.00
2018,01,30,16,43,11.90
2018,01,30,16,44,11.00
2018,01,30,16,45,11.00
2018,01,30,16,46,11.00
2018,01,30,16,47,10.30
2018,01,30,16,48,9.00
2018,01,30,16,49,9.00
2018,01,30,16,50,9.00
2018,01,30,16,51,10.20
2018,01,30,16,52,11.00
2018,01,30,16,53,9.60
2018,01,30,16,54,9.00
2018,01,30,16,55,9.00
2018,01,30,16,56,9.00
2018,01,30,16,57,9.10
2018,01,30,16,58,11.10
2018,01,30,16,59,11.90
2018,01,30,17,00,11.00
2018,01,30,17,01,10.40
2018,01,30,17,02,9.00
2018,01,30,17,03,8.20
2018,01,30,17,04,7.00
2018,01,30,17,05,6.00
2018,01,30,17,06,2.00
2018,01,30,17,07,0.00
2018,01,30,17,08,0.00
2018,01,30,17,09,0.00
2018,01,30,17,10,0.00
2018,01,30,17,11,0.00
2018,01,30,17,12,0.00
2018,01,30,17,13,0.00
2018,01,30,17,14,0.00
2018,01,30,17,15,0.00
2018,01,30,17,16,0.00
2018,01,30,17,17,0.00
2018,01,30,17,18,0.00
2018,01,30,17,19,0.00
2018,01,30,17,20,0.00
2018,01,30,17,21,0.00
2018,01,30,17,22,0.00
2018,01,30,17,23,0.00
2018,01,30,17,24,0.00
2018,01,30,17,25,0.00
2018,01,30,17,26,0.00
2018,01,30,17,27,0.00
2018,01,30,17,28,0.00
2018,01,30,17,29,0.00
2018,01,30,17,30,0.00
2018,01,30,17,31,0.00
2018,01,30,17,32,0.00